Location: Gleizolles
(44.4833°N, 6.7667°E)
Time: 14:50:55
(UTC+00:00)

Transit 4A - Pass Details

Date: 27 June 2024
Orbit: 870 x 973 km, 66.8° (Epoch: 18 July)

Event Time Altitude Azimuth Distance (km) Brightness Sun altitude
Rises 21:06:54 0° 222° (SW) 3,458 10.7 -14.1°
Reaches altitude 10° 21:09:25 10° 226° (SW) 2,517 10.1 -14.4°
Maximum altitude 21:15:09 60° 306° (NW) 990 8.3 -15.0°
Drops below altitude 10° 21:20:55 10° 26° (NNE) 2,530 10.6 -15.5°
Sets 21:23:28 0° 30° (NNE) 3,478 11.3 -15.8°
